EW8332 Weather Reports


time (UTC)temp
F
wind
direction
speed
knots
gust
knots
rain 1hr
in
rain 24hr
in
rain mn
in
humidity
%
barometer
mb
20260507013703 62 310 1.7 4.3 0.00 0.00 0.00 84 1014.1
20260507013203 62 356 0.9 10.4 0.00 0.00 0.00 84 1014.0
20260507003704 62 317 2.6 6.1 0.00 0.00 0.00 83 1013.3
20260507003204 63 325 2.6 10.4 0.00 0.00 0.00 83 1013.1
20260507000704 63 320 2.6 7.0 0.00 0.00 0.00 82 1013.1
20260507000205 63 324 3.5 12.2 0.00 0.00 0.00 81 1013.2
20260506233704 64 349 2.6 7.0 0.00 0.00 0.00 80 1012.9
20260506233204 64 355 1.7 10.4 0.00 0.00 0.00 80 1012.8
20260506223704 65 348 3.5 8.7 0.00 0.00 0.00 80 1012.7
20260506220704 66 339 4.3 11.3 0.00 0.00 0.00 77 1012.4
20260506220203 67 347 4.3 11.3 0.00 0.00 0.00 77 1012.3
20260506213704 71 333 4.3 7.8 0.00 0.00 0.00 71 1012.1
20260506213204 72 355 2.6 11.3 0.00 0.00 0.00 73 1012.1
20260506210704 73 346 4.3 11.3 0.00 0.00 0.00 72 1012.0
20260506210203 73 312 4.3 13.9 0.00 0.00 0.00 72 1012.1
20260506203704 74 310 7.0 11.3 0.00 0.00 0.00 71 1012.0
20260506203204 75 0 5.2 13.0 0.00 0.00 0.00 72 1012.0
20260506200704 75 304 5.2 13.0 0.00 0.00 0.00 73 1012.3
20260506193204 80 345 1.7 8.7 0.00 0.00 0.00 73 1011.6
20260506190703 83 314 1.7 4.3 0.00 0.00 0.00 70 1011.7
20260506190204 82 68 1.7 6.1 0.00 0.00 0.00 71 1011.8
20260506183704 81 348 1.7 4.3 0.00 0.00 0.00 74 1011.9
20260506183204 80 140 3.5 7.0 0.00 0.00 0.00 72 1011.9
20260506180704 80 112 0.9 2.6 0.00 0.00 0.00 76 1011.9
20260506180203 80 255 1.7 6.1 0.00 0.00 0.00 74 1012.0
20260506173703 77 138 1.7 2.6 0.00 0.00 0.00 77 1012.1
20260506173204 76 13 1.7 4.3 0.00 0.00 0.00 76 1012.0
20260506170704 71 54 1.7 7.8 0.00 0.00 0.00 84 1012.4
20260506170203 71 358 1.7 7.0 0.00 0.00 0.00 84 1012.5
20260506163203 68 313 1.7 11.3 0.00 0.00 0.00 86 1013.0
20260506160704 77 126 0.0 0.9 0.00 0.00 0.00 87 1012.8
20260506160204 77 29 0.0 2.6 0.00 0.00 0.00 86 1012.8
20260506153703 76 82 0.9 1.7 0.00 0.00 0.00 89 1012.6
20260506153204 76 53 0.0 2.6 0.00 0.00 0.00 89 1012.5
20260506150704 75 230 0.9 1.7 0.00 0.00 0.00 90 1011.5
20260506150204 75 111 0.0 2.6 0.00 0.00 0.00 90 1011.5
20260506143704 74 70 0.0 2.6 0.00 0.00 0.00 91 1011.3
20260506143203 74 153 0.9 2.6 0.00 0.00 0.00 91 1011.2
20260506140704 74 24 0.0 0.0 0.00 0.00 0.00 92 1011.4
20260506140204 74 24 0.0 5.2 0.00 0.00 0.00 92 1011.3
20260506130704 74 76 0.9 1.7 0.00 0.00 0.00 92 1010.1
20260506130204 74 80 0.9 2.6 0.00 0.00 0.00 92 1010.1
20260506123703 74 138 0.9 1.7 0.00 0.00 0.00 92 1009.9
20260506123204 74 141 0.9 1.7 0.00 0.00 0.00 92 1010.0
20260506120704 74 170 0.0 0.0 0.00 0.00 0.00 92 1010.0
20260506120204 74 170 0.0 1.7 0.00 0.00 0.00 92 1009.9
20260506113704 74 170 0.0 1.7 0.00 0.00 0.00 92 1009.8
20260506110704 74 168 1.7 2.6 0.00 0.00 0.00 91 1009.7
20260506110204 74 173 1.7 4.3 0.00 0.00 0.00 91 1009.6
20260506103703 74 170 1.7 6.1 0.00 0.00 0.00 91 1009.5
20260506100704 74 169 2.6 5.2 0.00 0.00 0.00 91 1009.4
20260506100204 74 172 2.6 6.1 0.00 0.00 0.00 90 1009.4
20260506093704 74 162 2.6 6.1 0.00 0.00 0.00 91 1009.2
20260506093204 74 185 3.5 8.7 0.00 0.00 0.00 90 1009.0
20260506090704 74 160 2.6 6.1 0.00 0.00 0.00 90 1009.1
20260506083704 74 169 2.6 6.1 0.00 0.00 0.00 90 1009.0
20260506070704 75 178 3.5 10.4 0.00 0.00 0.00 90 1009.5
20260506070203 74 161 4.3 12.2 0.00 0.00 0.00 90 1009.5
20260506060704 75 163 4.3 7.8 0.00 0.00 0.00 89 1009.7
20260506060204 75 168 2.6 10.4 0.00 0.00 0.00 89 1009.7
20260506050705 75 153 3.5 7.0 0.00 0.00 0.00 88 1009.8
20260506043704 76 160 2.6 7.8 0.00 0.00 0.00 89 1009.7
20260506043203 76 166 4.3 10.4 0.00 0.00 0.00 89 1009.7
20260506040704 76 156 4.3 10.4 0.00 0.00 0.00 88 1009.4
20260506040204 76 158 3.5 7.8 0.00 0.00 0.00 88 1009.3
20260506033204 76 150 1.7 6.1 0.00 0.00 0.00 89 1009.0
20260506030704 76 128 1.7 4.3 0.00 0.00 0.00 88 1008.6
20260506030204 76 144 1.7 4.3 0.00 0.00 0.00 88 1008.5
20260506023704 76 150 1.7 2.6 0.00 0.00 0.00 86 1008.3
20260506023204 76 136 1.7 5.2 0.00 0.00 0.00 85 1008.3
20260506020204 77 150 0.9 2.6 0.00 0.00 0.00 84 1007.6